Weather History for KCEZ - December, 2011

Change the Weather History Date:

Friday, December 23, 2011

  Actual Average Record
Temperature  
Mean Temperature 22 °F 27 °F  
Max Temperature 37 °F 41 °F 59 °F (2005)
Min Temperature 7 °F 14 °F 1 °F (1996)
Degree Days  
Heating Degree Days 43 38  
Month to date heating degree days 831  
Since 1 July heating degree days 2356  
Cooling Degree Days 0 0  
Month to date cooling degree days 0  
Year to date cooling degree days 426  
Moisture  
Dew Point 9 °F    
Average Humidity 69    
Maximum Humidity 84    
Minimum Humidity 36    
Precipitation  
Precipitation 0.00 in 0.03 in 0.22 in (1996)
Month to date precipitation 0.62  
Year to date precipitation 13.35  
Sea Level Pressure  
Sea Level Pressure 30.44 in    
Wind  
Wind Speed 5 mph (East)    
Max Wind Speed 14 mph    
Max Gust Speed -    
Visibility 10 miles    
Events      
T = Trace of Precipitation, MM = Missing Value Source: NWS Daily Summary

Daily Weather History Graph

Daily Weather History Graph

Search for Another Location

Airport or City:

Trip Planner

Search our weather history database for the weather conditions in past years. The results will help you decide how hot, cold, wet, or windy it might be!

Date:

Astronomy

Dec. 23, 2011 Rise Set
Actual Time 7:25 AM MST 5:01 PM MST
Civil Twilight 6:56 AM MST 5:30 PM MST
Nautical Twilight 6:23 AM MST 6:03 PM MST
Astronomical Twilight 5:52 AM MST 6:35 PM MST
Moon 6:18 AM MST (12/23) 4:13 PM MST (12/23)
Length of Visible Light 10h 34m
Length of Day
9h 35m
Waning Crescent, 1% of the Moon is Illuminated
Dec 23
Waning Crescent
Dec 24
New
Dec 31
First Quarter
Jan 9
Full
Jan 16
Last Quarter

Hourly Weather History & Observations

Time (MST) Temp. Windchill Dew Point Humidity Pressure Visibility Wind Dir Wind Speed Gust Speed Precip Events Conditions
12:53 AM 15.1 °F 7.7 °F 10.0 °F 80% 30.34 in 10.0 mi ENE 4.6 mph - N/A   Clear
1:53 AM 10.9 °F 2.9 °F 7.0 °F 84% 30.37 in 10.0 mi NNE 4.6 mph - N/A   Clear
2:53 AM 10.0 °F 3.6 °F 6.1 °F 84% 30.40 in 10.0 mi East 3.5 mph - N/A   Clear
3:53 AM 10.0 °F -1.9 °F 6.1 °F 84% 30.40 in 10.0 mi NE 8.1 mph - N/A   Clear
4:53 AM 10.0 °F 1.8 °F 6.1 °F 84% 30.42 in 10.0 mi NE 4.6 mph - N/A   Clear
5:53 AM 9.0 °F 0.6 °F 3.9 °F 80% 30.45 in 10.0 mi East 4.6 mph - N/A   Clear
6:53 AM 7.0 °F -3.3 °F 1.9 °F 80% 30.47 in 10.0 mi East 5.8 mph - N/A   Clear
7:53 AM 7.0 °F -1.7 °F 1.9 °F 80% 30.51 in 8.0 mi East 4.6 mph - N/A   Clear
8:53 AM 14.0 °F 5.1 °F 8.1 °F 77% 30.48 in 10.0 mi East 5.8 mph - N/A   Clear
9:53 AM 19.9 °F - 10.0 °F 65% 30.46 in 10.0 mi Calm Calm - N/A   Clear
11:53 AM 30.9 °F - 8.1 °F 38% 30.41 in 10.0 mi Calm Calm - N/A   Clear
12:53 PM 34.0 °F 29.8 °F 10.0 °F 37% 30.38 in 10.0 mi SW 4.6 mph - N/A   Clear
1:53 PM 36.0 °F 33.3 °F 10.9 °F 36% 30.38 in 10.0 mi Variable 3.5 mph - N/A   Clear
2:53 PM 37.0 °F 31.6 °F 12.9 °F 37% 30.38 in 10.0 mi SSW 6.9 mph - N/A   Clear
3:53 PM 34.0 °F 26.0 °F 14.0 °F 44% 30.40 in 10.0 mi SSW 10.4 mph - N/A   Clear
4:53 PM 30.0 °F 19.5 °F 15.1 °F 54% 30.43 in 10.0 mi SSW 13.8 mph - N/A   Clear
5:53 PM 25.0 °F - 15.1 °F 66% 30.47 in 10.0 mi Calm Calm - N/A   Clear
6:53 PM 21.9 °F - 12.9 °F 68% 30.50 in 10.0 mi Calm Calm - N/A   Clear
7:53 PM 17.1 °F 10.0 °F 12.0 °F 81% 30.54 in 10.0 mi ENE 4.6 mph - N/A   Clear
8:53 PM 17.1 °F 8.7 °F 10.9 °F 77% 30.50 in 10.0 mi ENE 5.8 mph - N/A   Clear
9:53 PM 15.1 °F 7.7 °F 10.0 °F 80% 30.49 in 10.0 mi ENE 4.6 mph - N/A   Clear
10:53 PM 12.9 °F 3.8 °F 8.1 °F 81% 30.48 in 10.0 mi East 5.8 mph - N/A   Clear
11:53 PM 12.0 °F 2.7 °F 8.1 °F 84% 30.47 in 10.0 mi NNE 5.8 mph - N/A   Clear